�����P�W�N�x�@��C��������Ԃɂ�鑪�茋��,,,,,,,,,,,,,,
,,,,,,,,,,,,,,
�P�@����n�_,,,,,,,,,,,,,,
���c�s�l�c���i�l�c���R���ځj,,,,,,,,,,,,,,
,,,,,,,,,,,,,,
�Q�@���Ԓl�i�m��l�j�������P�W�N�T���Q�O���`�����P�W�N�U���X��,,,,,,,,,,,,,,
,,,,,,,,,,,,,,
,�N,��,��,��,SO2,SPM,Ox,CO,NO,NO2,���x,���x,����,����
,,,,,ppm,mg/m3,ppm,ppm,ppm,ppm,��,%,�P�U����,m/s
H01,2006,5,20,1,***,0.026,0.012,***,***,***,20.6,93.9,SE,2.8
H01,2006,5,20,2,***,0.029,0.015,0.3,***,***,20.7,94.3,SSE,2.4
H01,2006,5,20,3,0.001,0.035,0.016,0.2,0.001,0.008,20.7,94.5,SE,1.8
H01,2006,5,20,4,0.001,0.037,0.006,0.2,0.003,0.01,20.5,94.7,SE,1.1
H01,2006,5,20,5,0.001,0.037,0.001,0.4,0.021,0.016,20.3,94.8,SE,1
H01,2006,5,20,6,0.001,0.052,0.001,0.3,0.041,0.014,20.2,95.1,S,0.5
H01,2006,5,20,7,0.002,0.04,0.001,0.5,0.038,0.017,21.1,95.7,WNW,0.4
H01,2006,5,20,8,0.002,0.041,0.004,0.6,0.041,0.02,22.7,95.8,S,1
H01,2006,5,20,9,0.004,0.042,0.004,0.5,0.04,0.018,22.8,88.2,S,1.1
H01,2006,5,20,10,0.003,0.048,0.008,0.5,0.035,0.019,24.6,86,SSE,3.2
H01,2006,5,20,11,0.003,0.039,0.013,0.5,0.02,0.013,24.9,82.5,SSE,3.3
H01,2006,5,20,12,0.004,0.04,0.01,0.6,0.023,0.021,22.8,78.2,W,1.6
H01,2006,5,20,13,0.003,0.041,0.024,0.6,0.012,0.019,24.6,66.3,W,4.2
H01,2006,5,20,14,0.002,0.017,0.043,0.5,0.002,0.009,25.3,62.6,WNW,3.8
H01,2006,5,20,15,0.001,0.017,0.051,0.5,0.001,0.007,24.3,58.3,W,5.2
H01,2006,5,20,16,0.001,0.021,0.054,0.5,0.001,0.007,23.7,59.2,W,4.9
H01,2006,5,20,17,0.001,0.023,0.057,0.5,0.001,0.009,22.4,57.2,W,4.7
H01,2006,5,20,18,0.001,0.02,0.058,0.5,0.003,0.01,20.5,60.3,W,5.3
H01,2006,5,20,19,0,0.027,0.063,0.4,0.001,0.008,18.9,66,W,3.6
H01,2006,5,20,20,0,0.025,0.06,0.4,0.001,0.011,18.3,67.1,W,3
H01,2006,5,20,21,0,0.022,0.071,0.3,0,0.006,17.9,67.7,WNW,3
H01,2006,5,20,22,0,0.029,0.073,0.3,0,0.005,17.7,67.2,WNW,2.9
H01,2006,5,20,23,0,0.03,0.078,0.2,0,0.006,17.4,67.6,WNW,2.7
H01,2006,5,20,24,0,0.039,0.08,0.2,0,0.004,17.3,65.8,NW,3.8
H01,2006,5,21,1,0,0.033,0.085,0.2,0,0.004,17.6,62.4,NW,3.6
H01,2006,5,21,2,0.001,0.035,0.084,0.2,0,0.005,17.3,62.9,NW,3.6
H01,2006,5,21,3,0.001,0.039,0.082,0.2,0,0.004,16.9,64,WNW,2.6
H01,2006,5,21,4,0,0.036,0.077,0.2,0,0.005,16.2,67.2,WNW,2.2
H01,2006,5,21,5,0,0.037,0.074,0.2,0,0.005,16,68.4,WNW,2.1
H01,2006,5,21,6,0.001,0.033,0.07,0.2,0,0.005,16.5,65.6,W,2.3
H01,2006,5,21,7,0.001,0.036,0.066,0.2,0,0.007,18.3,61.5,W,2.6
H01,2006,5,21,8,0.002,0.03,0.06,0.3,0.002,0.012,21,51.6,WNW,2.2
H01,2006,5,21,9,0.003,0.026,0.067,0.4,0.001,0.01,23,37.2,NW,3.2
H01,2006,5,21,10,0.003,0.024,0.07,0.6,0.002,0.009,24.7,31.3,WNW,2.5
H01,2006,5,21,11,0.003,0.022,0.07,0.9,0.002,0.012,25.8,25.8,WNW,2.9
H01,2006,5,21,12,0.003,0.027,0.074,0.9,0.001,0.012,27.6,23.3,WNW,2.5
H01,2006,5,21,13,0.003,0.021,0.075,1,0.001,0.013,28.7,21.2,WNW,1.8
H01,2006,5,21,14,0.003,0.025,0.084,1,0.001,0.014,27.1,33,SSE,4.3
H01,2006,5,21,15,0.003,0.017,0.09,0.8,0.001,0.008,25.1,44.5,SE,5.2
H01,2006,5,21,16,0.003,0.031,0.09,0.8,0.001,0.008,24.8,44.4,SE,4.3
H01,2006,5,21,17,0.004,0.044,0.09,0.8,0.001,0.009,23.6,46.4,ESE,4.5
H01,2006,5,21,18,0.003,0.047,0.087,0.7,0.002,0.009,22.7,53.8,ESE,3.3
H01,2006,5,21,19,0.003,0.055,0.078,0.7,0.002,0.015,21.6,59,SSE,2.4
H01,2006,5,21,20,0.003,0.038,0.078,0.6,0.002,0.01,20.8,70.7,SE,2
H01,2006,5,21,21,0.001,0.036,0.072,0.5,0.001,0.008,20.2,72.9,SE,2.5
H01,2006,5,21,22,0.001,0.042,0.066,0.4,0.001,0.009,20.1,75.6,SE,2.4
H01,2006,5,21,23,0.001,0.036,0.063,0.4,0,0.009,19.9,77.6,ESE,1.7
H01,2006,5,21,24,0.001,0.034,0.048,0.5,0.002,0.016,19.1,78.6,Calm,0.1
H01,2006,5,22,1,0.001,0.03,0.045,0.4,0.001,0.015,19.4,78.5,Calm,0
H01,2006,5,22,2,0.001,0.032,0.055,0.3,0,0.01,19.7,77.6,NE,0.3
H01,2006,5,22,3,0.001,0.031,0.047,0.4,0,0.012,19,76.5,NE,0.4
H01,2006,5,22,4,0.002,0.044,0.03,0.4,0,0.015,18.3,75.8,N,0.7
H01,2006,5,22,5,0.002,0.044,0.031,0.4,0,0.012,18.4,75.6,WNW,0.6
H01,2006,5,22,6,0.001,0.05,0.025,0.4,0.001,0.015,18.7,75.9,Calm,0.2
H01,2006,5,22,7,0.002,0.055,0.021,0.5,0.003,0.019,19.6,73.7,Calm,0.1
H01,2006,5,22,8,0.003,0.059,0.017,0.8,0.022,0.029,21.3,70.4,SE,1.8
H01,2006,5,22,9,0.002,0.048,0.04,0.6,0.014,0.021,23.1,69.2,E,2.4
H01,2006,5,22,10,0.002,0.047,0.054,0.6,0.014,0.019,23.6,67.3,SE,2.6
H01,2006,5,22,11,0.002,0.038,0.067,0.6,0.009,0.017,23.8,61.1,SSE,3.5
H01,2006,5,22,12,0.002,0.036,0.066,0.6,0.006,0.011,24.3,66.9,SE,4.4
H01,2006,5,22,13,0.002,0.04,0.067,0.5,0.004,0.011,22.8,68.4,SSE,5.1
H01,2006,5,22,14,0.002,0.035,0.068,0.5,0.007,0.011,23.7,62.8,SSE,4.8
H01,2006,5,22,15,0.001,0.047,0.067,0.6,0.007,0.014,24,64.5,SE,4
H01,2006,5,22,16,0.001,0.043,0.071,0.6,0.003,0.013,23.6,62.8,SE,4.6
H01,2006,5,22,17,0.002,0.036,0.067,0.6,0.005,0.013,23,64.5,SE,3.8
H01,2006,5,22,18,0.002,0.036,0.063,0.6,0.004,0.013,22,70,SE,3.8
H01,2006,5,22,19,0.001,0.041,0.061,0.6,0.003,0.015,21,75.3,ESE,2.8
H01,2006,5,22,20,0.001,0.045,0.058,0.6,0.004,0.015,20.8,74.6,ESE,2.4
H01,2006,5,22,21,0.001,0.035,0.058,0.6,0.003,0.018,20.5,75.9,ESE,2.6
H01,2006,5,22,22,0.001,0.041,0.053,0.5,0.002,0.017,20.5,76.5,ESE,2
H01,2006,5,22,23,0.001,0.038,0.051,0.5,0.002,0.017,20.1,77.8,SE,1.9
H01,2006,5,22,24,0.001,0.035,0.054,0.4,0.001,0.016,20,77.4,ESE,2.1
H01,2006,5,23,1,0.001,0.029,0.058,0.4,0,0.014,19.8,77.7,ESE,2
H01,2006,5,23,2,0.001,0.035,0.048,0.4,0,0.015,19.8,77.9,ESE,2.4
H01,2006,5,23,3,0.001,0.032,0.053,0.4,0,0.015,19.6,78.5,E,1.9
H01,2006,5,23,4,0.001,0.027,0.048,0.3,0.001,0.017,19.6,79.7,SE,2.4
H01,2006,5,23,5,0.001,0.034,0.046,0.4,0.003,0.018,19.6,79.9,ESE,2.3
H01,2006,5,23,6,0.001,0.041,0.035,0.4,0.013,0.024,19.8,79.7,ESE,2.4
H01,2006,5,23,7,0.001,0.042,0.036,0.6,0.008,0.024,20.2,78.7,ESE,2.8
H01,2006,5,23,8,0.002,0.039,0.039,0.6,0.011,0.022,20.1,81.5,ESE,3.4
H01,2006,5,23,9,0.001,0.055,0.035,0.5,0.01,0.028,20.3,83.1,ESE,3.3
H01,2006,5,23,10,0.002,0.049,0.03,0.6,0.018,0.029,20.3,83.1,ESE,2.7
H01,2006,5,23,11,0.002,0.051,0.027,0.6,0.02,0.034,20.2,86.2,ESE,2.9
H01,2006,5,23,12,0.001,0.055,0.038,0.6,0.012,0.028,20.1,88.7,SE,2.8
H01,2006,5,23,13,0.001,0.042,0.045,0.5,0.012,0.022,20,91.3,SE,3.4
H01,2006,5,23,14,0.001,0.035,0.048,0.4,0.009,0.02,20,93,SSE,2.7
H01,2006,5,23,15,0.001,0.038,0.041,0.6,0.014,0.024,19.8,93.7,SSE,2.1
H01,2006,5,23,16,0.001,0.04,0.034,0.5,0.015,0.028,20.2,94.6,SE,1.4
H01,2006,5,23,17,0.002,0.054,0.027,0.6,0.014,0.033,20.1,94.5,SE,1.8
H01,2006,5,23,18,0.002,0.037,0.026,0.8,0.016,0.03,19.4,93.8,SE,1.7
H01,2006,5,23,19,0.001,0.032,0.034,0.7,0.01,0.021,19.5,93.9,SE,1.2
H01,2006,5,23,20,0.001,0.043,0.022,0.8,0.016,0.03,19.5,94,SE,0.3
H01,2006,5,23,21,0.002,0.06,0.01,0.7,0.01,0.033,19.5,94.4,Calm,0.1
H01,2006,5,23,22,0.001,0.057,0.008,0.6,0.004,0.032,19.3,94.5,NW,0.5
H01,2006,5,23,23,0.001,0.054,0.011,0.5,0.001,0.024,19.3,94.7,Calm,0
H01,2006,5,23,24,0.001,0.056,0.004,0.5,0.003,0.029,18.9,94.6,W,0.7
H01,2006,5,24,1,0.001,0.054,0,0.6,0.009,0.033,18.1,94.5,Calm,0.2
H01,2006,5,24,2,0.001,0.06,0.001,0.7,0.018,0.034,17.7,95,NW,0.7
H01,2006,5,24,3,0,0.059,0,0.6,0.015,0.039,17.4,95.1,W,0.7
H01,2006,5,24,4,0.001,0.045,0.001,0.6,0.015,0.04,16.9,95.1,NW,1.3
H01,2006,5,24,5,0,0.026,0.053,0.4,0,0.01,16.6,93.1,NW,1.4
H01,2006,5,24,6,0,0.026,0.06,0.3,0,0.011,17.3,86.1,WNW,1.5
H01,2006,5,24,7,0,0.017,0.062,0.3,0,0.013,18.2,77,WNW,2
H01,2006,5,24,8,0.001,0.03,0.052,0.4,0.005,0.024,19.9,66.3,NW,2.3
H01,2006,5,24,9,0.001,0.026,0.064,0.4,0.002,0.016,20.5,61.2,W,1.9
H01,2006,5,24,10,0.002,0.021,0.073,0.4,0.002,0.014,23.6,52.9,W,2
H01,2006,5,24,11,0.001,0.019,0.083,0.5,0.001,0.012,24.7,48.1,WNW,3.6
H01,2006,5,24,12,0.001,0.028,0.087,0.6,0.001,0.01,25.4,44.5,WNW,4.3
H01,2006,5,24,13,0.001,0.037,0.086,0.6,0.004,0.014,26.3,42.4,WNW,4.4
H01,2006,5,24,14,0.002,0.054,0.097,0.7,0,0.009,26.5,40,WNW,3.8
H01,2006,5,24,15,0.002,0.064,0.101,0.8,0,0.008,26,37.7,NW,4.4
H01,2006,5,24,16,0.002,0.058,0.102,0.8,0,0.007,25.2,38.6,NW,4.8
H01,2006,5,24,17,0.002,0.068,0.094,0.9,0,0.012,23.9,43.1,WNW,3.8
H01,2006,5,24,18,0.001,0.07,0.08,0.8,0.003,0.02,22.3,47.9,WNW,4
H01,2006,5,24,19,0.001,0.066,0.088,0.7,0,0.01,20.5,55,WNW,3.9
H01,2006,5,24,20,0.001,0.048,0.082,0.6,0,0.01,19.6,57.2,NW,2.8
H01,2006,5,24,21,0.001,0.037,0.078,0.6,0,0.01,18.5,61.5,WNW,2.6
H01,2006,5,24,22,0,0.021,0.079,0.5,0,0.008,17.4,62.7,NW,2.3
H01,2006,5,24,23,0,0.027,0.075,0.4,0,0.009,16.8,65.2,W,2.6
H01,2006,5,24,24,0,0.018,0.075,0.3,0,0.007,16.4,65.6,WNW,1.7
H01,2006,5,25,1,0,0.032,0.07,0.3,0,0.006,15.4,71.3,WNW,1
H01,2006,5,25,2,0,0.02,0.055,0.3,0,0.012,15.4,71,NW,1
H01,2006,5,25,3,0.002,0.026,0.053,0.3,0,0.011,15.4,70.7,NW,1.3
H01,2006,5,25,4,0.002,0.028,0.045,0.3,0,0.014,14.7,73.3,WNW,0.8
H01,2006,5,25,5,0.001,0.038,0.03,0.3,0.001,0.023,13.7,77.8,N,0.3
H01,2006,5,25,6,0.001,0.034,0.031,0.4,0,0.019,15.3,72.3,NNW,1.2
H01,2006,5,25,7,0.001,0.019,0.048,0.3,0.001,0.014,16.9,63,NNW,1.5
H01,2006,5,25,8,0.001,0.016,0.047,0.3,0.003,0.016,18.8,56.5,NW,2
H01,2006,5,25,9,0.003,0.022,0.031,0.5,0.017,0.026,10.7,52.5,NNW,1.3
H01,2006,5,25,10,0.003,0.023,0.039,0.6,0.012,0.022,21.9,50.1,WNW,1.4
H01,2006,5,25,11,0.003,0.021,0.052,0.6,0.005,0.019,23.1,43.2,WNW,1.5
H01,2006,5,25,12,0.002,0.02,0.064,0.6,0.004,0.017,24.9,38.5,SW,1.5
H01,2006,5,25,13,0.002,0.03,0.071,0.7,0.006,0.02,24.7,35.9,SSW,1.7
H01,2006,5,25,14,0.004,0.029,0.076,0.7,0.007,0.021,24.6,36.1,SSE,3.5
H01,2006,5,25,15,0.003,0.027,0.08,0.8,0.005,0.016,22.3,52.2,SSE,4.6
H01,2006,5,25,16,0.002,0.031,0.096,0.7,0.003,0.014,21.7,55.8,SSE,3.6
H01,2006,5,25,17,0.002,0.038,0.096,0.7,0.003,0.015,20.2,65.1,SSE,3.6
H01,2006,5,25,18,0.002,0.024,0.095,0.8,0.003,0.015,19.3,71.1,SSE,3.7
H01,2006,5,25,19,0.001,0.032,0.091,0.7,0.002,0.019,19.1,72,SE,2.5
H01,2006,5,25,20,0.002,0.038,0.084,0.6,0.003,0.018,18.8,72.3,SE,2.7
H01,2006,5,25,21,0.001,0.034,0.068,0.6,0.002,0.023,18.6,73.4,SE,1.9
H01,2006,5,25,22,0.001,0.029,0.067,0.5,0.002,0.014,18.4,77.7,SE,2.2
H01,2006,5,25,23,0.001,0.033,0.066,0.4,0.001,0.012,18.3,78,SE,2.1
H01,2006,5,25,24,0.002,0.04,0.056,0.4,0.001,0.017,18.1,76.4,ESE,2
H01,2006,5,26,1,0.002,0.032,0.052,0.4,0,0.014,16.9,78.7,Calm,0
H01,2006,5,26,2,0.002,0.029,0.041,0.4,0,0.019,16.4,79.9,N,0.3
H01,2006,5,26,3,0.002,0.044,0.027,0.4,0,0.025,16.3,78.5,Calm,0.2
H01,2006,5,26,4,0.002,0.034,0.027,0.4,0,0.027,16.2,75.4,NE,0.3
H01,2006,5,26,5,0.004,0.031,0.021,0.4,0,0.027,16.1,74.9,NE,0.3
H01,2006,5,26,6,0.006,0.032,0.009,0.4,0.003,0.034,16.9,75.2,NE,0.3
H01,2006,5,26,7,0.006,0.036,0.009,0.4,0.009,0.037,18.3,73.4,NE,0.3
H01,2006,5,26,8,0.003,0.031,0.033,0.6,0.006,0.027,19.4,67.5,ENE,0.8
H01,2006,5,26,9,0.003,0.022,0.029,0.6,0.013,0.031,19.7,65.2,ENE,1.2
H01,2006,5,26,10,0.003,0.033,0.027,0.7,0.029,0.033,20.1,63.3,E,2.3
H01,2006,5,26,11,0.003,0.027,0.029,0.6,0.019,0.032,20.1,64.7,E,1.7
H01,2006,5,26,12,0.003,0.031,0.024,0.7,0.029,0.04,20.3,65.3,ESE,2.4
H01,2006,5,26,13,0.003,0.032,0.029,0.7,0.017,0.035,20.1,67.5,E,1.6
H01,2006,5,26,14,0.004,0.026,0.028,0.6,0.025,0.032,20,67.7,ESE,3.6
H01,2006,5,26,15,0.003,0.035,0.034,0.6,0.015,0.027,19.3,73.3,ESE,2.3
H01,2006,5,26,16,0.002,0.037,0.024,0.6,0.018,0.037,18.1,83.6,E,1.2
H01,2006,5,26,17,0.001,0.042,0.023,0.7,0.017,0.038,17.6,86.5,E,2.1
H01,2006,5,26,18,0.001,0.034,0.026,0.7,0.012,0.033,17.6,88.1,ESE,2.5
H01,2006,5,26,19,0.002,0.036,0.025,0.7,0.013,0.034,17.7,87.2,E,1.4
H01,2006,5,26,20,0.002,0.04,0.03,0.6,0.011,0.031,17.6,82.7,E,1.7
H01,2006,5,26,21,0.001,0.019,0.038,0.5,0.004,0.022,17.7,81.7,E,1
H01,2006,5,26,22,0.001,0.026,0.046,0.4,0.002,0.015,17.8,79.1,E,1.6
H01,2006,5,26,23,0.001,0.033,0.05,0.3,0.002,0.013,17.9,74.5,E,2.7
H01,2006,5,26,24,0.001,0.022,0.044,0.3,0.005,0.017,17.3,77.6,E,1
H01,2006,5,27,1,***,0.022,0.038,***,***,***,16.9,81.8,E,1.1
H01,2006,5,27,2,***,0.03,0.046,0.3,***,***,16.7,79.6,E,1.5
H01,2006,5,27,3,0.003,0.027,0.044,0.3,0.001,0.015,16.1,85.5,SE,2.3
H01,2006,5,27,4,0.003,0.034,0.036,0.3,0.002,0.018,15.8,87.8,E,1.7
H01,2006,5,27,5,0.002,0.03,0.041,0.2,0.004,0.015,15.8,87.5,E,1.7
H01,2006,5,27,6,0.002,0.032,0.037,0.3,0.011,0.019,15.8,85.1,E,1.3
H01,2006,5,27,7,0.002,0.016,0.039,0.3,0.009,0.02,16.3,81.5,E,1.6
H01,2006,5,27,8,0.002,0.021,0.034,0.5,0.017,0.02,17.1,78.4,E,1.1
H01,2006,5,27,9,0.004,0.024,0.035,0.4,0.015,0.023,18.2,76.8,ENE,1.2
H01,2006,5,27,10,0.003,0.019,0.043,0.5,0.015,0.02,19.5,73.3,E,1.9
H01,2006,5,27,11,0.003,0.012,0.053,0.4,0.012,0.014,21,66.3,E,4
H01,2006,5,27,12,0.003,0.016,0.063,0.4,0.008,0.012,21.7,61.7,ESE,5.4
H01,2006,5,27,13,0.004,0.016,0.065,0.4,0.006,0.011,21.4,63.1,ESE,5
H01,2006,5,27,14,0.003,0.023,0.065,0.4,0.006,0.012,21.8,60.9,ESE,5.1
H01,2006,5,27,15,0.003,0.015,0.064,0.5,0.006,0.011,21.2,63.5,E,4.6
H01,2006,5,27,16,0.003,0.019,0.059,0.5,0.007,0.015,21.1,64.2,E,3.7
H01,2006,5,27,17,0.003,0.012,0.065,0.5,0.004,0.009,20.8,64.9,E,3.1
H01,2006,5,27,18,0.002,0.014,0.06,0.6,0.006,0.014,20.8,65.2,E,1.8
H01,2006,5,27,19,0.002,0.013,0.062,0.5,0.003,0.012,20.6,66,E,2
H01,2006,5,27,20,0.002,0.011,0.065,0.4,0.003,0.01,20.5,67.7,E,2.2
H01,2006,5,27,21,0.001,0.014,0.068,0.4,0.002,0.008,20.6,67.3,E,1.9
H01,2006,5,27,22,0.001,0.013,0.07,0.4,0.001,0.007,20.9,67.2,E,2.8
H01,2006,5,27,23,0.001,0.013,0.071,0.4,0.001,0.005,20.7,69.3,E,2.1
H01,2006,5,27,24,0.001,0.009,0.07,0.4,0,0.005,21,69.7,E,1.3
H01,2006,5,28,1,0.001,0.015,0.065,0.4,0,0.005,19.2,76.7,N,0.7
H01,2006,5,28,2,0.001,0.028,0.033,0.5,0,0.014,18.3,84,NW,1.6
H01,2006,5,28,3,0.001,0.034,0.025,0.5,0,0.019,18.6,86.6,NW,2.1
H01,2006,5,28,4,0.001,0.03,0.042,0.4,0,0.011,18,89.7,NW,1.9
H01,2006,5,28,5,0.001,0.024,0.049,0.3,0,0.006,17.8,92,W,1.7
H01,2006,5,28,6,0.001,0.025,0.048,0.3,0,0.006,18.1,93.3,WNW,0.9
H01,2006,5,28,7,0.001,0.022,0.045,0.4,0.001,0.009,18.2,93.6,SW,0.5
H01,2006,5,28,8,0.001,0.032,0.039,0.4,0.002,0.015,18.5,93.7,SW,0.8
H01,2006,5,28,9,0.001,0.024,0.044,0.5,0.005,0.015,19.8,93.1,SE,1.4
H01,2006,5,28,10,0.001,0.026,0.055,0.5,0.002,0.009,21.8,78.3,SW,1.7
H01,2006,5,28,11,0.001,0.028,0.066,0.6,0.002,0.011,22.8,67.3,WNW,1.1
H01,2006,5,28,12,0.002,0.039,0.076,0.7,0.002,0.012,25.6,55.6,W,2.2
H01,2006,5,28,13,0.003,0.042,0.09,0.8,0.001,0.011,26.6,46.2,W,2.9
H01,2006,5,28,14,0.002,0.034,0.098,0.9,0,0.009,27,40.2,SW,2.2
H01,2006,5,28,15,0.002,0.036,0.101,1,0,0.009,26.9,40.2,WNW,2.3
H01,2006,5,28,16,0.003,0.049,0.089,1,0,0.014,24.9,43.8,W,2.7
H01,2006,5,28,17,0.003,0.053,0.073,0.9,0.001,0.02,24.4,43.2,W,2.3
H01,2006,5,28,18,0.003,0.053,0.071,1,0.001,0.02,23.5,48.3,WNW,1.2
H01,2006,5,28,19,0.003,0.054,0.057,1,0.001,0.029,22.5,54.5,W,0.6
H01,2006,5,28,20,0.003,0.047,0.053,1,0.001,0.028,21.2,61.3,Calm,0.2
H01,2006,5,28,21,0.003,0.059,0.038,1,0.003,0.029,20.9,64.5,Calm,0
H01,2006,5,28,22,0.002,0.049,0.021,1.2,0.005,0.037,20.4,70.4,Calm,0.1
H01,2006,5,28,23,0.004,0.061,0.017,1.1,0.004,0.033,19.7,77.3,Calm,0.1
H01,2006,5,28,24,0.002,0.078,0.002,1.2,0.016,0.041,18.5,79.5,ESE,0.3
H01,2006,5,29,1,0.002,0.057,0.005,1,0.011,0.032,18.4,82,N,0.4
H01,2006,5,29,2,0.002,0.059,0.003,0.9,0.005,0.031,18.1,83.6,SW,0.3
H01,2006,5,29,3,0.002,0.064,0.003,0.9,0.01,0.033,17.3,85,Calm,0
H01,2006,5,29,4,0.002,0.062,0.013,0.7,0.006,0.027,17.9,84.3,SSE,0.5
H01,2006,5,29,5,0.002,0.058,0.009,0.8,0.018,0.032,17.4,83.8,Calm,0.2
H01,2006,5,29,6,0.003,0.065,0.002,0.9,0.031,0.032,18.3,84.4,Calm,0
H01,2006,5,29,7,0.004,0.066,0.005,0.9,0.025,0.032,19.6,75.9,NW,0.6
H01,2006,5,29,8,0.004,0.072,0.014,0.8,0.016,0.029,21.4,69.1,W,1.6
H01,2006,5,29,9,0.008,0.079,0.027,0.9,0.01,0.028,23.4,60.6,W,1.5
H01,2006,5,29,10,0.007,0.05,0.044,0.9,0.012,0.032,24.5,50.3,W,1.9
H01,2006,5,29,11,0.004,0.044,0.067,0.8,0.006,0.028,25,44.3,W,1.5
H01,2006,5,29,12,0.002,0.028,0.082,0.8,0.003,0.021,26.2,43.4,WNW,1.2
H01,2006,5,29,13,0.002,0.031,0.093,0.8,0.002,0.015,26.6,39.7,WNW,3.2
H01,2006,5,29,14,0.002,0.038,0.093,0.9,0.002,0.019,27.8,38,W,2.1
H01,2006,5,29,15,0.003,0.042,0.102,0.9,0.003,0.026,24.9,50.1,WNW,1.5
H01,2006,5,29,16,0.004,0.053,0.057,1,0.007,0.045,25,49.1,WNW,1.3
H01,2006,5,29,17,0.003,0.043,0.08,0.9,0.001,0.023,25,52.3,WNW,1
H01,2006,5,29,18,0.004,0.043,0.061,0.9,0.003,0.032,24,48.1,NW,2.4
H01,2006,5,29,19,0.004,0.043,0.057,0.9,0,0.021,23.2,50.4,NW,1.5
H01,2006,5,29,20,0.003,0.035,0.034,0.8,0.002,0.029,22.3,54.6,NW,2
H01,2006,5,29,21,0.004,0.029,0.021,0.9,0.001,0.032,21.5,57.6,NW,1
H01,2006,5,29,22,0.005,0.033,0.011,0.9,0.002,0.036,20.9,59.8,NW,0.5
H01,2006,5,29,23,0.005,0.034,0.009,1,0.003,0.036,20.2,60.7,NW,1.1
H01,2006,5,29,24,0.002,0.027,0.015,0.8,0.002,0.03,19.9,62.1,NW,0.6
H01,2006,5,30,1,0.002,0.031,0.009,0.8,0.001,0.032,19.4,67.2,W,0.8
H01,2006,5,30,2,0.003,0.034,0.005,0.8,0.001,0.036,19.1,68.2,NW,1
H01,2006,5,30,3,0.002,0.031,0.005,0.7,0.001,0.033,18.7,71.8,WNW,0.9
H01,2006,5,30,4,0.004,0.038,0.001,0.6,0.006,0.04,18.3,73.8,WNW,0.8
H01,2006,5,30,5,0.004,0.042,0.001,0.6,0.009,0.04,18.1,74.7,W,0.8
H01,2006,5,30,6,0.003,0.043,0.004,0.5,0.012,0.035,18.5,74.3,NW,1.4
H01,2006,5,30,7,0.008,0.057,0.006,0.9,0.029,0.038,20.5,68.3,WNW,0.8
H01,2006,5,30,8,0.01,0.035,0.017,1,0.019,0.031,22.4,53.9,WNW,1.7
H01,2006,5,30,9,0.006,0.032,0.031,0.6,0.01,0.028,23.6,49.8,W,1.5
H01,2006,5,30,10,0.005,0.035,0.058,0.7,0.006,0.021,25.3,46.5,WNW,1.7
H01,2006,5,30,11,0.004,0.032,0.08,0.8,0.003,0.021,26.2,43.7,W,1.9
H01,2006,5,30,12,0.004,0.028,0.1,0.8,0.001,0.017,26.6,43.2,WNW,2.2
H01,2006,5,30,13,0.003,0.039,0.106,0.8,0.001,0.02,28,38.7,WNW,2.2
H01,2006,5,30,14,0.003,0.043,0.11,0.8,0.001,0.018,27.9,37.7,W,2.7
H01,2006,5,30,15,0.003,0.038,0.11,0.9,0,0.014,28.1,37.9,NW,2.5
H01,2006,5,30,16,0.002,0.042,0.093,0.9,0,0.019,21.4,52.4,WNW,4.5
H01,2006,5,30,17,0.001,0.04,0.064,0.8,0.001,0.016,20.3,78.3,NW,1.6
H01,2006,5,30,18,0.002,0.042,0.043,0.8,0.008,0.029,21.4,71.5,WNW,2
H01,2006,5,30,19,0.002,0.045,0.048,0.7,0.002,0.024,21.4,63.8,WNW,2.2
H01,2006,5,30,20,0.001,0.04,0.038,0.6,0.002,0.025,20.9,58.6,WNW,1.5
H01,2006,5,30,21,0.001,0.024,0.045,0.6,0.001,0.02,20.2,57.6,NW,1.7
H01,2006,5,30,22,0.001,0.031,0.045,0.5,0.002,0.02,19.3,62,W,1.3
H01,2006,5,30,23,0.001,0.019,0.048,0.5,0.001,0.019,18.5,65.1,WNW,1
H01,2006,5,30,24,0.002,0.025,0.032,0.5,0.002,0.024,17.6,67.9,Calm,0.1
H01,2006,5,31,1,0.002,0.031,0.015,0.9,0.006,0.031,17,71,Calm,0.2
H01,2006,5,31,2,0.002,0.033,0.01,0.6,0.005,0.03,15.9,77.8,Calm,0
H01,2006,5,31,3,0.001,0.027,0.011,0.5,0.001,0.025,15.7,80.6,WNW,0.4
H01,2006,5,31,4,0.001,0.035,0.006,0.5,0.001,0.027,15.8,77.7,NW,1
H01,2006,5,31,5,0.001,0.032,0.004,0.6,0.005,0.033,15,79.9,WNW,0.5
H01,2006,5,31,6,0.002,0.041,0.003,0.6,0.024,0.034,16.9,79.9,N,0.5
H01,2006,5,31,7,0.003,0.055,0.007,0.6,0.023,0.034,19.3,70.8,NW,0.8
H01,2006,5,31,8,0.002,0.043,0.019,0.6,0.018,0.032,21.8,60.8,W,1
H01,2006,5,31,9,0.005,0.049,0.017,1.6,0.028,0.046,24.2,52.2,WNW,1.3
H01,2006,5,31,10,0.007,0.037,0.027,1.4,0.023,0.044,25.5,44.3,W,1.2
H01,2006,5,31,11,0.007,0.055,0.045,1.4,0.01,0.037,26.9,43.9,WNW,1.4
H01,2006,5,31,12,0.006,0.057,0.059,1.1,0.007,0.029,28.6,41.4,WNW,1.6
H01,2006,5,31,13,0.004,0.048,0.093,0.9,0.003,0.022,29.1,41.2,W,1.6
H01,2006,5,31,14,0.003,0.055,0.108,0.9,0.001,0.02,30.3,35.9,SW,1.6
H01,2006,5,31,15,0.003,0.049,0.095,1,0.003,0.029,28.6,39.8,S,1.9
H01,2006,5,31,16,0.006,0.053,0.078,1.1,0.006,0.035,26.9,49.5,SSE,3
H01,2006,5,31,17,0.006,0.06,0.067,1,0.007,0.029,26.4,53.7,SSE,2.4
H01,2006,5,31,18,0.006,0.05,0.054,1.2,0.006,0.037,26.6,48.8,S,1.9
H01,2006,5,31,19,0.003,0.043,0.056,1.2,0.005,0.035,25.4,50.2,SW,0.5
H01,2006,5,31,20,0.002,0.048,0.05,1,0.001,0.034,25.1,48.6,NW,1.6
H01,2006,5,31,21,0.004,0.047,0.074,0.8,0,0.021,24.2,50.7,WNW,2
H01,2006,5,31,22,0.006,0.066,0.084,0.8,0,0.018,23.1,51.6,WNW,1.4
H01,2006,5,31,23,0.009,0.063,0.084,0.7,0,0.018,22.4,52.9,NW,1.7
H01,2006,5,31,24,0.004,0.046,0.097,0.7,0,0.017,21.5,52.3,WNW,0.8
H01,2006,6,1,1,0.003,0.043,0.094,0.7,0,0.017,21.3,52.8,WNW,0.7
H01,2006,6,1,2,0.003,0.058,0.1,0.6,0,0.014,20.6,52.3,W,1.2
H01,2006,6,1,3,0.004,0.057,0.09,0.6,0,0.014,18.9,57.9,Calm,0
H01,2006,6,1,4,0.002,0.05,0.061,0.6,0,0.02,17.6,66.5,Calm,0.1
H01,2006,6,1,5,0.002,0.062,0.018,0.7,0.006,0.04,17.2,72.8,NW,0.3
H01,2006,6,1,6,0.001,0.076,0.017,0.8,0.005,0.034,18.8,74,WNW,0.5
H01,2006,6,1,7,0.003,0.089,0.02,0.8,0.017,0.049,20.8,60.8,NW,0.7
H01,2006,6,1,8,0.006,0.085,0.043,0.9,0.009,0.046,23.1,52.5,WNW,1.7
H01,2006,6,1,9,0.011,0.084,0.046,1.3,0.011,0.053,25.6,40.2,NW,2.1
H01,2006,6,1,10,0.007,0.065,0.1,0.8,0.002,0.025,27.4,36.4,NW,2.9
H01,2006,6,1,11,0.006,0.057,0.102,1,0.002,0.026,28.2,34.9,WNW,3
H01,2006,6,1,12,0.006,0.06,0.11,0.9,0.001,0.026,29.5,31.7,WNW,2.6
H01,2006,6,1,13,0.006,0.07,0.124,1.1,0,0.019,30.9,28.6,WNW,2.8
H01,2006,6,1,14,0.005,0.06,0.134,1,0.001,0.03,31.1,29.9,WNW,1.9
H01,2006,6,1,15,0.004,0.065,0.144,1.1,0.002,0.04,31.5,29.8,W,2
H01,2006,6,1,16,0.004,0.079,0.11,1.1,0.007,0.046,30.1,31.7,W,2.6
H01,2006,6,1,17,0.004,0.074,0.073,1.1,0.018,0.047,29.4,33.3,W,1.5
H01,2006,6,1,18,0.005,0.074,0.071,1.1,0.01,0.042,27.9,36.9,W,2
H01,2006,6,1,19,0.005,0.069,0.072,1.1,0.001,0.038,26.3,41.6,W,1.5
H01,2006,6,1,20,0.004,0.076,0.075,1,0,0.032,25.5,45.5,W,0.4
H01,2006,6,1,21,0.005,0.075,0.076,1,0,0.026,24.6,48.4,WNW,0.7
H01,2006,6,1,22,0.004,0.088,0.058,1.1,0.001,0.033,24,51.4,SE,1
H01,2006,6,1,23,0.004,0.074,0.047,1,0.001,0.033,22.3,66.7,SE,2.7
H01,2006,6,1,24,0.003,0.088,0.09,0.8,0,0.016,21.9,66.6,ESE,2.2
H01,2006,6,2,1,0.003,0.074,0.083,0.8,0.001,0.02,21.6,69,SE,2.1
H01,2006,6,2,2,0.003,0.083,0.102,0.8,0,0.019,21.4,74.8,ESE,1.6
H01,2006,6,2,3,0.003,0.078,0.112,0.8,0.001,0.017,21.2,75.2,ESE,1.1
H01,2006,6,2,4,0.002,0.084,0.09,0.8,0.001,0.023,20.1,79.6,Calm,0
H01,2006,6,2,5,0.002,0.089,0.07,0.8,0.001,0.024,20,80.8,Calm,0.1
H01,2006,6,2,6,0.003,0.085,0.059,0.8,0.007,0.037,20.8,76.8,NW,0.3
H01,2006,6,2,7,0.004,0.081,0.065,0.9,0.002,0.039,21.8,70,ENE,0.5
H01,2006,6,2,8,0.005,0.088,0.046,1.2,0.009,0.051,22.6,65.5,E,0.5
H01,2006,6,2,9,0.005,0.094,0.057,1,0.005,0.043,22.7,64.5,ENE,0.6
H01,2006,6,2,10,0.004,0.065,0.063,1,0.009,0.039,23.5,65.7,ESE,0.4
H01,2006,6,2,11,0.004,0.081,0.06,1,0.021,0.044,23.7,66.5,SSE,1.5
H01,2006,6,2,12,0.005,0.086,0.06,1,0.013,0.044,23.6,68.4,S,1.9
H01,2006,6,2,13,0.004,0.076,0.072,0.9,0.01,0.029,23,72.1,SSE,3.3
H01,2006,6,2,14,0.003,0.077,0.079,0.9,0.007,0.022,22.9,72.9,SSE,2.2
H01,2006,6,2,15,0.003,0.073,0.067,0.9,0.008,0.024,23.1,76.5,SSE,2.2
H01,2006,6,2,16,0.003,0.064,0.055,0.9,0.009,0.026,22.6,78.4,SE,1.9
H01,2006,6,2,17,0.004,0.069,0.044,0.9,0.01,0.031,22.3,77.2,SE,1.9
H01,2006,6,2,18,0.005,0.064,0.038,1,0.012,0.03,22.2,76.7,SSE,2.2
H01,2006,6,2,19,0.004,0.057,0.049,0.8,0.006,0.026,21.6,72.6,SSE,2.4
H01,2006,6,2,20,0.004,0.067,0.048,0.9,0.007,0.026,21.4,70,SSE,1.2
H01,2006,6,2,21,0.003,0.045,0.05,0.8,0.006,0.025,20.8,70.6,SE,0.8
H01,2006,6,2,22,0.004,0.054,0.033,0.8,0.008,0.03,20,78.2,Calm,0.1
H01,2006,6,2,23,0.004,0.051,0.025,0.8,0.005,0.033,20.1,75.6,SE,0.6
H01,2006,6,2,24,0.003,0.06,0.03,0.9,0.007,0.027,20.1,77.5,SE,0.7
H01,2006,6,3,1,***,0.052,0.035,***,***,***,18.9,78.4,Calm,0
H01,2006,6,3,2,***,0.061,0.025,0.4,***,***,18.4,81.9,Calm,0
H01,2006,6,3,3,0.003,0.059,0.009,0.5,0.006,0.038,18.5,82.4,Calm,0
H01,2006,6,3,4,0.002,0.059,0.008,0.5,0.005,0.037,18.5,82.5,Calm,0.2
H01,2006,6,3,5,0.002,0.059,0.002,0.5,0.02,0.041,18.7,82.5,NW,1.1
H01,2006,6,3,6,0.002,0.053,0.006,0.5,0.007,0.036,19.4,78.7,Calm,0.1
H01,2006,6,3,7,0.003,0.05,0.011,0.5,0.015,0.04,20.5,72.1,ESE,0.6
H01,2006,6,3,8,0.004,0.045,0.029,0.5,0.013,0.032,22.1,65.2,WNW,0.4
H01,2006,6,3,9,0.004,0.062,0.048,0.6,0.012,0.029,23.7,59.6,NNE,0.7
H01,2006,6,3,10,0.003,0.068,0.076,0.6,0.004,0.02,25.6,55.2,NE,0.4
H01,2006,6,3,11,0.004,0.069,0.081,0.7,0.006,0.028,26.3,51.2,S,1.6
H01,2006,6,3,12,0.004,0.068,0.089,0.8,0.006,0.026,26.2,52.9,SSE,4
H01,2006,6,3,13,0.004,0.066,0.104,0.7,0.003,0.018,25.4,56,SSE,4.2
H01,2006,6,3,14,0.005,0.077,0.104,0.7,0.004,0.018,25.2,63,SSE,3.6
H01,2006,6,3,15,***,***,***,***,***,***,***,***,***,***
H01,2006,6,3,16,***,***,***,***,***,***,***,***,***,***
H01,2006,6,3,17,***,***,***,***,***,***,***,***,***,***
H01,2006,6,3,18,***,***,***,***,***,***,***,***,***,***
H01,2006,6,3,19,***,***,***,***,***,***,***,***,***,***
H01,2006,6,3,20,***,***,***,***,***,***,***,***,***,***